FSF2PC LZKZ-LKPR

Flight info

Callsign FSF2PC
Flight time 1h 8m
Altitude 24000
Route TAKOS DCT LALES DCT TUMKA DCT VLM
Aircraft PC12/L-SDFGRWY/S

Departure

Time 2026-04-22 19:17
Airport Košice International Airport (LZKZ)

Arrival

Time 2026-04-22 20:25
Airport Václav Havel Airport Prague (LKPR)
Time Latitude Longitude Altitude Speed Heading
2026-04-22 18:52 48.67093 21.23647 753 ft 0 kts 304°
2026-04-22 19:09 48.67101 21.23641 752 ft 1 kts 23°
2026-04-22 19:09 48.67108 21.23656 750 ft 2 kts 100°
2026-04-22 19:09 48.67030 21.23718 752 ft 16 kts 151°
2026-04-22 19:10 48.66930 21.23811 753 ft 18 kts 147°
2026-04-22 19:10 48.66840 21.23936 752 ft 18 kts 104°
2026-04-22 19:10 48.66810 21.24117 753 ft 18 kts 105°
2026-04-22 19:10 48.66782 21.24292 756 ft 17 kts 102°
2026-04-22 19:11 48.66755 21.24471 753 ft 18 kts 103°
2026-04-22 19:11 48.66714 21.24603 754 ft 11 kts 185°
2026-04-22 19:11 48.66633 21.24579 752 ft 13 kts 193°
2026-04-22 19:11 48.66540 21.24547 754 ft 15 kts 192°
2026-04-22 19:12 48.66435 21.24513 753 ft 16 kts 192°
2026-04-22 19:12 48.66320 21.24471 753 ft 17 kts 194°
2026-04-22 19:12 48.66199 21.24427 753 ft 18 kts 192°
2026-04-22 19:12 48.66070 21.24381 753 ft 19 kts 194°
2026-04-22 19:13 48.65936 21.24335 754 ft 20 kts 194°
2026-04-22 19:13 48.65801 21.24288 754 ft 20 kts 194°
2026-04-22 19:13 48.65667 21.24246 754 ft 20 kts 194°
2026-04-22 19:13 48.65535 21.24195 754 ft 19 kts 194°
2026-04-22 19:14 48.65405 21.24149 754 ft 19 kts 193°
2026-04-22 19:14 48.65276 21.24106 753 ft 19 kts 191°
2026-04-22 19:14 48.65149 21.24067 753 ft 18 kts 193°
2026-04-22 19:14 48.65030 21.24026 753 ft 17 kts 193°
2026-04-22 19:15 48.64954 21.23991 753 ft 17 kts 206°
2026-04-22 19:15 48.64903 21.23883 753 ft 8 kts 262°
2026-04-22 19:15 48.64900 21.23845 751 ft 0 kts 267°
2026-04-22 19:15 48.64900 21.23842 751 ft 2 kts 268°
2026-04-22 19:16 48.64921 21.23748 752 ft 15 kts 298°
2026-04-22 19:16 48.65004 21.23664 751 ft 12 kts
2026-04-22 19:16 48.65017 21.23668 755 ft 0 kts 12°
2026-04-22 19:17 48.65177 21.23727 753 ft 56 kts 14°
2026-04-22 19:17 48.65719 21.23917 803 ft 94 kts 13°
2026-04-22 19:17 48.66369 21.24181 1139 ft 100 kts 15°
2026-04-22 19:17 48.67086 21.24435 1482 ft 111 kts 12°
2026-04-22 19:18 48.67887 21.24689 1880 ft 124 kts 12°
2026-04-22 19:18 48.68754 21.24988 2393 ft 131 kts 11°
2026-04-22 19:18 48.69664 21.25306 2907 ft 137 kts 10°
2026-04-22 19:18 48.70612 21.25633 3424 ft 142 kts 10°
2026-04-22 19:19 48.71592 21.25932 3931 ft 144 kts
2026-04-22 19:19 48.72519 21.25420 4450 ft 149 kts 320°
2026-04-22 19:19 48.72957 21.23965 4978 ft 161 kts 284°
2026-04-22 19:19 48.73040 21.22256 5491 ft 164 kts 280°
2026-04-22 19:20 48.73102 21.20513 6008 ft 167 kts 280°
2026-04-22 19:20 48.73178 21.18736 6537 ft 170 kts 280°
2026-04-22 19:20 48.73264 21.16933 7034 ft 173 kts 281°
2026-04-22 19:20 48.73357 21.15106 7543 ft 175 kts 280°
2026-04-22 19:21 48.73454 21.13258 8054 ft 177 kts 280°
2026-04-22 19:21 48.73552 21.11392 8583 ft 179 kts 279°
2026-04-22 19:21 48.73651 21.09506 9114 ft 180 kts 279°
2026-04-22 19:21 48.73750 21.07608 9651 ft 181 kts 279°
2026-04-22 19:22 48.73850 21.05701 10180 ft 182 kts 279°
2026-04-22 19:22 48.73954 21.03781 10675 ft 183 kts 279°
2026-04-22 19:22 48.74060 21.01846 11186 ft 186 kts 279°
2026-04-22 19:22 48.74168 20.99868 11664 ft 195 kts 279°
2026-04-22 19:23 48.74281 20.97783 12132 ft 202 kts 279°
2026-04-22 19:23 48.74395 20.95615 12614 ft 206 kts 279°
2026-04-22 19:23 48.74506 20.93462 13080 ft 209 kts 279°
2026-04-22 19:23 48.74618 20.91253 13557 ft 211 kts 280°
2026-04-22 19:24 48.74730 20.89026 14034 ft 213 kts 279°
2026-04-22 19:24 48.74843 20.86785 14471 ft 214 kts 280°
2026-04-22 19:24 48.74956 20.84532 14920 ft 215 kts 280°
2026-04-22 19:24 48.75070 20.82261 15380 ft 217 kts 280°
2026-04-22 19:25 48.75187 20.79957 15803 ft 220 kts 281°
2026-04-22 19:25 48.75304 20.77626 16217 ft 223 kts 281°
2026-04-22 19:25 48.75422 20.75270 16640 ft 226 kts 281°
2026-04-22 19:25 48.75540 20.72889 17059 ft 227 kts 281°
2026-04-22 19:26 48.75658 20.70495 17493 ft 228 kts 281°
2026-04-22 19:26 48.75774 20.68122 17923 ft 229 kts 281°
2026-04-22 19:26 48.75892 20.65708 18383 ft 231 kts 281°
2026-04-22 19:26 48.76011 20.63275 18772 ft 232 kts 281°
2026-04-22 19:27 48.76130 20.60823 19169 ft 233 kts 281°
2026-04-22 19:27 48.76250 20.58356 19537 ft 237 kts 281°
2026-04-22 19:27 48.76373 20.55841 19867 ft 242 kts 281°
2026-04-22 19:27 48.76497 20.53283 20192 ft 245 kts 281°
2026-04-22 19:28 48.76621 20.50693 20504 ft 249 kts 281°
2026-04-22 19:28 48.76749 20.48047 20747 ft 254 kts 281°
2026-04-22 19:28 48.76879 20.45356 21009 ft 258 kts 281°
2026-04-22 19:28 48.77010 20.42625 21255 ft 261 kts 281°
2026-04-22 19:29 48.77140 20.39864 21528 ft 264 kts 281°
2026-04-22 19:29 48.77271 20.37070 21789 ft 267 kts 281°
2026-04-22 19:29 48.77401 20.34264 22062 ft 267 kts 281°
2026-04-22 19:29 48.77527 20.31464 22303 ft 266 kts 281°
2026-04-22 19:30 48.77568 20.30558 22390 ft 266 kts 281°
2026-04-22 19:30 48.77739 20.26795 22770 ft 269 kts 281°
2026-04-22 19:30 48.77910 20.23028 23147 ft 271 kts 281°
2026-04-22 19:30 48.78040 20.20164 23434 ft 273 kts 281°
2026-04-22 19:31 48.78168 20.17298 23685 ft 272 kts 281°
2026-04-22 19:31 48.78252 20.15370 23842 ft 271 kts 281°
2026-04-22 19:31 48.78376 20.12525 24074 ft 270 kts 281°
2026-04-22 19:31 48.78505 20.09632 24115 ft 279 kts 281°
2026-04-22 19:32 48.78639 20.06653 24130 ft 287 kts 280°
2026-04-22 19:32 48.78776 20.03605 24145 ft 293 kts 280°
2026-04-22 19:32 48.78913 20.00501 24139 ft 297 kts 280°
2026-04-22 19:32 48.79050 19.97361 24146 ft 300 kts 279°
2026-04-22 19:33 48.79184 19.94198 24146 ft 302 kts 280°
2026-04-22 19:33 48.79318 19.91016 24161 ft 303 kts 279°
2026-04-22 19:33 48.79451 19.87855 24162 ft 304 kts 279°
2026-04-22 19:33 48.79584 19.84652 24163 ft 305 kts 279°
2026-04-22 19:34 48.79716 19.81444 24152 ft 304 kts 279°
2026-04-22 19:34 48.79848 19.78245 24150 ft 303 kts 279°
2026-04-22 19:34 48.79976 19.75059 24148 ft 302 kts 279°
2026-04-22 19:34 48.80103 19.71882 24145 ft 302 kts 279°
2026-04-22 19:35 48.80231 19.68703 24154 ft 302 kts 279°
2026-04-22 19:35 48.80359 19.65515 24158 ft 303 kts 279°
2026-04-22 19:35 48.80486 19.62320 24160 ft 304 kts 279°
2026-04-22 19:35 48.80614 19.59118 24165 ft 305 kts 279°
2026-04-22 19:36 48.80740 19.55909 24153 ft 305 kts 279°
2026-04-22 19:36 48.80865 19.52700 24161 ft 305 kts 279°
2026-04-22 19:36 48.80990 19.49484 24167 ft 306 kts 279°
2026-04-22 19:36 48.81115 19.46264 24165 ft 306 kts 279°
2026-04-22 19:37 48.81239 19.43042 24169 ft 306 kts 279°
2026-04-22 19:37 48.81362 19.39818 24176 ft 306 kts 279°
2026-04-22 19:37 48.81483 19.36594 24172 ft 306 kts 279°
2026-04-22 19:37 48.81604 19.33373 24176 ft 306 kts 279°
2026-04-22 19:38 48.81723 19.30153 24173 ft 306 kts 279°
2026-04-22 19:38 48.81843 19.26930 24186 ft 306 kts 279°
2026-04-22 19:38 48.81963 19.23705 24186 ft 307 kts 279°
2026-04-22 19:38 48.82081 19.20506 24181 ft 307 kts 279°
2026-04-22 19:39 48.82198 19.17282 24178 ft 306 kts 279°
2026-04-22 19:39 48.82312 19.14055 24175 ft 306 kts 279°
2026-04-22 19:39 48.82424 19.10831 24168 ft 306 kts 279°
2026-04-22 19:39 48.82557 19.07608 24178 ft 304 kts 282°
2026-04-22 19:40 48.83004 19.04512 24180 ft 298 kts 294°
2026-04-22 19:40 48.83679 19.01566 24190 ft 295 kts 298°
2026-04-22 19:40 48.84431 18.98656 24190 ft 295 kts 300°
2026-04-22 19:40 48.85193 18.95765 24188 ft 295 kts 300°
2026-04-22 19:41 48.85944 18.92866 24185 ft 295 kts 299°
2026-04-22 19:41 48.86678 18.89959 24181 ft 295 kts 298°
2026-04-22 19:41 48.87390 18.87079 24183 ft 295 kts 298°
2026-04-22 19:41 48.88100 18.84159 24185 ft 295 kts 298°
2026-04-22 19:42 48.88804 18.81233 24187 ft 295 kts 298°
2026-04-22 19:42 48.89504 18.78302 24186 ft 295 kts 297°
2026-04-22 19:42 48.90202 18.75369 24186 ft 295 kts 297°
2026-04-22 19:42 48.90899 18.72432 24170 ft 295 kts 297°
2026-04-22 19:43 48.92288 18.66561 24182 ft 295 kts 297°
2026-04-22 19:43 48.92982 18.63625 24188 ft 295 kts 297°
2026-04-22 19:43 48.93676 18.60684 24189 ft 295 kts 297°
2026-04-22 19:44 48.94369 18.57742 24185 ft 295 kts 297°
2026-04-22 19:44 48.95061 18.54800 24193 ft 295 kts 297°
2026-04-22 19:44 48.95752 18.51857 24192 ft 295 kts 297°
2026-04-22 19:44 48.96443 18.48912 24196 ft 296 kts 297°
2026-04-22 19:45 48.97134 18.45963 24198 ft 296 kts 297°
2026-04-22 19:45 48.97825 18.43008 24199 ft 296 kts 297°
2026-04-22 19:45 48.98516 18.40050 24199 ft 296 kts 297°
2026-04-22 19:45 48.99207 18.37091 24200 ft 297 kts 297°
2026-04-22 19:46 48.99898 18.34128 24197 ft 297 kts 297°
2026-04-22 19:46 49.00586 18.31174 24184 ft 296 kts 297°
2026-04-22 19:46 49.01273 18.28216 24186 ft 296 kts 297°
2026-04-22 19:46 49.01959 18.25264 24189 ft 295 kts 297°
2026-04-22 19:47 49.02643 18.22311 24195 ft 296 kts 297°
2026-04-22 19:47 49.03328 18.19357 24193 ft 296 kts 297°
2026-04-22 19:47 49.04011 18.16399 24197 ft 296 kts 297°
2026-04-22 19:47 49.04696 18.13436 24199 ft 297 kts 297°
2026-04-22 19:48 49.05380 18.10466 24199 ft 297 kts 297°
2026-04-22 19:48 49.06055 18.07533 24201 ft 297 kts 297°
2026-04-22 19:48 49.06739 18.04558 24196 ft 297 kts 297°
2026-04-22 19:48 49.07422 18.01583 24198 ft 297 kts 297°
2026-04-22 19:49 49.08106 17.98602 24193 ft 297 kts 297°
2026-04-22 19:49 49.08785 17.95632 24193 ft 296 kts 296°
2026-04-22 19:49 49.09463 17.92663 24202 ft 296 kts 296°
2026-04-22 19:49 49.10139 17.89700 24194 ft 296 kts 296°
2026-04-22 19:50 49.10815 17.86733 24195 ft 296 kts 296°
2026-04-22 19:50 49.11491 17.83761 24196 ft 296 kts 296°
2026-04-22 19:50 49.12165 17.80793 24186 ft 296 kts 296°
2026-04-22 19:50 49.12837 17.77829 24189 ft 295 kts 296°
2026-04-22 19:51 49.13509 17.74864 24187 ft 296 kts 296°
2026-04-22 19:51 49.14180 17.71897 24187 ft 295 kts 296°
2026-04-22 19:51 49.14852 17.68923 24188 ft 296 kts 296°
2026-04-22 19:51 49.15523 17.65953 24187 ft 296 kts 296°
2026-04-22 19:52 49.16192 17.62982 24187 ft 296 kts 296°
2026-04-22 19:52 49.16859 17.60016 24188 ft 296 kts 296°
2026-04-22 19:52 49.17529 17.57035 24188 ft 296 kts 296°
2026-04-22 19:52 49.18187 17.54100 24188 ft 296 kts 296°
2026-04-22 19:53 49.18861 17.51091 24188 ft 296 kts 296°
2026-04-22 19:53 49.19527 17.48114 24188 ft 296 kts 296°
2026-04-22 19:53 49.20193 17.45133 24191 ft 297 kts 296°
2026-04-22 19:53 49.20859 17.42149 24190 ft 297 kts 296°
2026-04-22 19:54 49.21516 17.39196 24191 ft 297 kts 296°
2026-04-22 19:54 49.22190 17.36168 24203 ft 297 kts 296°
2026-04-22 19:54 49.22854 17.33177 24200 ft 297 kts 296°
2026-04-22 19:54 49.23509 17.30226 24199 ft 297 kts 296°
2026-04-22 19:55 49.24171 17.27233 24203 ft 297 kts 296°
2026-04-22 19:55 49.24833 17.24239 24204 ft 297 kts 296°
2026-04-22 19:55 49.25493 17.21249 24203 ft 297 kts 296°
2026-04-22 19:55 49.26154 17.18252 24201 ft 297 kts 296°
2026-04-22 19:56 49.26813 17.15256 24201 ft 297 kts 296°
2026-04-22 19:56 49.27473 17.12258 24201 ft 297 kts 296°
2026-04-22 19:56 49.28130 17.09260 24196 ft 297 kts 295°
2026-04-22 19:56 49.28786 17.06267 24202 ft 296 kts 295°
2026-04-22 19:57 49.29441 17.03275 24205 ft 296 kts 296°
2026-04-22 19:57 49.30095 17.00284 24206 ft 296 kts 295°
2026-04-22 19:57 49.30750 16.97285 24206 ft 296 kts 296°
2026-04-22 19:57 49.31403 16.94292 24214 ft 296 kts 295°
2026-04-22 19:58 49.32055 16.91297 24211 ft 296 kts 295°
2026-04-22 19:58 49.32706 16.88302 24216 ft 296 kts 295°
2026-04-22 19:58 49.33357 16.85302 24216 ft 297 kts 295°
2026-04-22 19:58 49.34007 16.82305 24214 ft 297 kts 295°
2026-04-22 19:59 49.34657 16.79301 24213 ft 297 kts 295°
2026-04-22 20:00 49.39134 16.61782 24222 ft 292 kts 301°
2026-04-22 20:00 49.39963 16.58928 24221 ft 293 kts 301°
2026-04-22 20:01 49.40787 16.56077 24219 ft 293 kts 301°
2026-04-22 20:01 49.41609 16.53214 24222 ft 293 kts 301°
2026-04-22 20:01 49.42429 16.50344 24220 ft 293 kts 301°
2026-04-22 20:01 49.43236 16.47510 24218 ft 294 kts 301°
2026-04-22 20:02 49.44064 16.44596 24219 ft 294 kts 301°
2026-04-22 20:02 49.44868 16.41758 24222 ft 294 kts 301°
2026-04-22 20:02 49.45683 16.38880 24222 ft 294 kts 301°
2026-04-22 20:02 49.46496 16.36003 24218 ft 293 kts 301°
2026-04-22 20:03 49.47307 16.33128 24220 ft 293 kts 301°
2026-04-22 20:03 49.48124 16.30239 24013 ft 298 kts 301°
2026-04-22 20:03 49.48952 16.27316 23772 ft 298 kts 300°
2026-04-22 20:03 49.49782 16.24379 23489 ft 299 kts 300°
2026-04-22 20:04 49.50613 16.21435 23201 ft 300 kts 300°
2026-04-22 20:04 49.51440 16.18495 22927 ft 300 kts 300°
2026-04-22 20:04 49.52267 16.15545 22650 ft 299 kts 300°
2026-04-22 20:04 49.53088 16.12610 22382 ft 298 kts 300°
2026-04-22 20:05 49.53904 16.09686 22112 ft 297 kts 300°
2026-04-22 20:05 49.54714 16.06782 21845 ft 295 kts 300°
2026-04-22 20:05 49.55521 16.03887 21576 ft 293 kts 300°
2026-04-22 20:05 49.56323 16.01005 21310 ft 292 kts 300°
2026-04-22 20:06 49.57126 15.98122 21067 ft 294 kts 300°
2026-04-22 20:06 49.57923 15.95258 20806 ft 294 kts 300°
2026-04-22 20:06 49.58729 15.92356 20553 ft 295 kts 300°
2026-04-22 20:06 49.59533 15.89453 20281 ft 294 kts 300°
2026-04-22 20:07 49.60335 15.86555 20027 ft 293 kts 300°
2026-04-22 20:07 49.61132 15.83666 19778 ft 292 kts 300°
2026-04-22 20:07 49.61929 15.80779 19525 ft 291 kts 300°
2026-04-22 20:07 49.62718 15.77917 19284 ft 290 kts 300°
2026-04-22 20:08 49.63510 15.75045 19051 ft 292 kts 300°
2026-04-22 20:08 49.64309 15.72146 18803 ft 294 kts 300°
2026-04-22 20:08 49.65112 15.69230 18564 ft 296 kts 300°
2026-04-22 20:08 49.65914 15.66307 18304 ft 297 kts 300°
2026-04-22 20:09 49.66719 15.63371 18025 ft 296 kts 299°
2026-04-22 20:09 49.67518 15.60443 17755 ft 296 kts 299°
2026-04-22 20:09 49.68317 15.57513 17487 ft 295 kts 299°
2026-04-22 20:09 49.69113 15.54598 17220 ft 294 kts 299°
2026-04-22 20:10 49.69906 15.51694 16951 ft 293 kts 299°
2026-04-22 20:10 49.70694 15.48804 16681 ft 292 kts 299°
2026-04-22 20:10 49.71480 15.45916 16379 ft 291 kts 299°
2026-04-22 20:10 49.72265 15.43033 15994 ft 291 kts 299°
2026-04-22 20:11 49.73046 15.40157 15614 ft 289 kts 299°
2026-04-22 20:11 49.73820 15.37303 15244 ft 286 kts 299°
2026-04-22 20:11 49.74577 15.34503 14871 ft 279 kts 299°
2026-04-22 20:11 49.75318 15.31756 14510 ft 275 kts 299°
2026-04-22 20:12 49.76051 15.29043 14150 ft 273 kts 299°
2026-04-22 20:12 49.76780 15.26346 13720 ft 271 kts 299°
2026-04-22 20:12 49.77261 15.24566 13415 ft 270 kts 299°
2026-04-22 20:12 49.78225 15.20993 12805 ft 268 kts 298°
2026-04-22 20:13 49.78940 15.18337 12362 ft 267 kts 298°
2026-04-22 20:13 49.79649 15.15699 11931 ft 264 kts 298°
2026-04-22 20:13 49.80349 15.13090 11497 ft 261 kts 298°
2026-04-22 20:13 49.81041 15.10507 11070 ft 258 kts 298°
2026-04-22 20:14 49.81723 15.07956 10639 ft 256 kts 298°
2026-04-22 20:14 49.82402 15.05416 10216 ft 254 kts 298°
2026-04-22 20:14 49.83075 15.02898 9784 ft 252 kts 298°
2026-04-22 20:14 49.83732 15.00436 9391 ft 249 kts 298°
2026-04-22 20:15 49.84391 14.97963 9002 ft 248 kts 298°
2026-04-22 20:15 49.85053 14.95475 8623 ft 245 kts 298°
2026-04-22 20:15 49.85695 14.93059 8357 ft 241 kts 297°
2026-04-22 20:15 49.86328 14.90670 8299 ft 239 kts 297°
2026-04-22 20:16 49.86747 14.89085 8291 ft 240 kts 297°
2026-04-22 20:16 49.87383 14.86682 8286 ft 241 kts 297°
2026-04-22 20:16 49.88021 14.84277 8047 ft 239 kts 297°
2026-04-22 20:16 49.88652 14.81903 7792 ft 237 kts 297°
2026-04-22 20:17 49.89474 14.78795 7455 ft 234 kts 297°
2026-04-22 20:17 49.89890 14.77223 7283 ft 233 kts 297°
2026-04-22 20:17 49.90506 14.74891 7038 ft 233 kts 297°
2026-04-22 20:17 49.91119 14.72576 6790 ft 232 kts 297°
2026-04-22 20:18 49.91738 14.70260 6536 ft 233 kts 297°
2026-04-22 20:18 49.92366 14.67928 6247 ft 235 kts 297°
2026-04-22 20:18 49.93007 14.65582 6001 ft 237 kts 297°
2026-04-22 20:18 49.93653 14.63228 5742 ft 237 kts 297°
2026-04-22 20:19 49.94298 14.60872 5482 ft 237 kts 297°
2026-04-22 20:19 49.94935 14.58532 5229 ft 233 kts 297°
2026-04-22 20:19 49.95634 14.56338 4976 ft 228 kts 302°
2026-04-22 20:19 49.96434 14.54232 4714 ft 225 kts 305°
2026-04-22 20:20 49.97282 14.52230 4447 ft 217 kts 309°
2026-04-22 20:20 49.98153 14.50384 4223 ft 205 kts 311°
2026-04-22 20:20 49.99014 14.48713 4099 ft 192 kts 313°
2026-04-22 20:20 49.99848 14.47156 4047 ft 187 kts 314°
2026-04-22 20:21 50.00684 14.45580 4021 ft 190 kts 313°
2026-04-22 20:21 50.01500 14.43926 3778 ft 195 kts 310°
2026-04-22 20:21 50.02271 14.42200 3498 ft 193 kts 308°
2026-04-22 20:21 50.02986 14.40584 3267 ft 168 kts 310°
2026-04-22 20:22 50.03634 14.39213 3054 ft 148 kts 312°
2026-04-22 20:22 50.04248 14.38003 2848 ft 137 kts 313°
2026-04-22 20:22 50.04800 14.36937 2668 ft 117 kts 314°
2026-04-22 20:22 50.05283 14.35989 2537 ft 107 kts 314°
2026-04-22 20:23 50.05705 14.35130 2384 ft 93 kts 313°
2026-04-22 20:23 50.06079 14.34355 2261 ft 87 kts 313°
2026-04-22 20:23 50.06439 14.33597 2168 ft 87 kts 312°
2026-04-22 20:23 50.06801 14.32840 2023 ft 88 kts 311°
2026-04-22 20:24 50.07168 14.32084 1862 ft 87 kts 306°
2026-04-22 20:24 50.07493 14.31365 1812 ft 77 kts 307°
2026-04-22 20:24 50.07815 14.30718 1720 ft 77 kts 308°
2026-04-22 20:24 50.08139 14.30049 1596 ft 78 kts 306°
2026-04-22 20:25 50.08455 14.29388 1476 ft 76 kts 306°
2026-04-22 20:25 50.08765 14.28746 1318 ft 73 kts 305°
2026-04-22 20:25 50.09064 14.28123 1215 ft 69 kts 304°
2026-04-22 20:25 50.09303 14.27627 1209 ft 47 kts 311°
2026-04-22 20:26 50.09455 14.27467 1207 ft 20 kts 35°
2026-04-22 20:26 50.09511 14.27535 1209 ft 6 kts 38°
2026-04-22 20:26 50.09551 14.27581 1209 ft 8 kts 36°
2026-04-22 20:26 50.09557 14.27587 1209 ft 1 kts 36°
2026-04-22 20:27 50.09582 14.27616 1208 ft 9 kts 36°
2026-04-22 20:27 50.09642 14.27697 1205 ft 14 kts 37°
2026-04-22 20:27 50.09701 14.27837 1203 ft 17 kts 80°
2026-04-22 20:27 50.09718 14.27998 1209 ft 15 kts 73°
2026-04-22 20:28 50.09742 14.28163 1209 ft 16 kts 78°
2026-04-22 20:28 50.09765 14.28335 1209 ft 16 kts 78°
2026-04-22 20:28 50.09797 14.28491 1209 ft 11 kts 81°
2026-04-22 20:28 50.09811 14.28589 1209 ft 4 kts 85°
2026-04-22 20:29 50.09790 14.28612 1209 ft 4 kts 178°
2026-04-22 20:29 50.09771 14.28614 1209 ft 0 kts 170°